TimeCST,TemperatureF,Dew PointF,Humidity,Sea Level PressureIn,VisibilityMPH,Wind Direction,Wind SpeedMPH,Gust SpeedMPH,PrecipitationIn,Events,Conditions,WindDirDegrees,DateUTC
12:15 AM,41.0,30.2,65,30.11,10.0,SW,6.9,-,N/A,,Overcast,220,2013-11-11 06:15:00
12:35 AM,41.0,30.2,65,30.10,10.0,SW,9.2,-,N/A,,Overcast,230,2013-11-11 06:35:00
12:55 AM,41.0,30.2,65,30.09,10.0,SW,9.2,-,N/A,,Overcast,220,2013-11-11 06:55:00
1:15 AM,41.0,30.2,65,30.08,10.0,SW,6.9,-,N/A,,Overcast,230,2013-11-11 07:15:00
1:35 AM,41.0,30.2,65,30.08,10.0,SW,5.8,-,N/A,,Overcast,230,2013-11-11 07:35:00
1:55 AM,41.0,30.2,65,30.08,10.0,SW,5.8,-,N/A,,Overcast,230,2013-11-11 07:55:00
2:15 AM,41.0,30.2,65,30.07,10.0,SW,4.6,-,N/A,,Overcast,230,2013-11-11 08:15:00
2:35 AM,41.0,30.2,65,30.05,10.0,SW,5.8,-,N/A,,Overcast,230,2013-11-11 08:35:00
2:55 AM,41.0,30.2,65,30.05,10.0,WSW,5.8,-,N/A,,Overcast,240,2013-11-11 08:55:00
3:15 AM,41.0,30.2,65,30.04,10.0,SW,9.2,-,N/A,,Overcast,230,2013-11-11 09:15:00
3:35 AM,41.0,30.2,65,30.04,10.0,WSW,9.2,-,N/A,,Overcast,250,2013-11-11 09:35:00
3:55 AM,41.0,30.2,65,30.03,10.0,West,10.4,-,N/A,,Overcast,260,2013-11-11 09:55:00
4:15 AM,41.0,30.2,65,30.04,10.0,WSW,9.2,-,N/A,,Overcast,250,2013-11-11 10:15:00
4:35 AM,41.0,30.2,65,30.04,10.0,West,8.1,-,N/A,,Drizzle,280,2013-11-11 10:35:00
4:55 AM,41.0,32.0,70,30.05,10.0,West,9.2,-,N/A,,Drizzle,270,2013-11-11 10:55:00
5:15 AM,41.0,32.0,70,30.04,10.0,West,5.8,-,N/A,,Light Drizzle,270,2013-11-11 11:15:00
5:35 AM,41.0,32.0,70,30.03,10.0,West,4.6,-,N/A,,Drizzle,270,2013-11-11 11:35:00
5:55 AM,41.0,32.0,70,30.05,10.0,West,11.5,-,N/A,Rain,Light Rain,280,2013-11-11 11:55:00
6:15 AM,41.0,32.0,70,30.04,10.0,West,10.4,-,N/A,,Drizzle,280,2013-11-11 12:15:00
6:35 AM,39.2,32.0,75,30.06,10.0,WNW,6.9,-,N/A,,Drizzle,290,2013-11-11 12:35:00
6:55 AM,37.4,32.0,81,30.08,10.0,NW,11.5,20.7,N/A,,Drizzle,320,2013-11-11 12:55:00
7:15 AM,35.6,32.0,87,30.09,5.0,NW,12.7,16.1,N/A,Rain,Rain,320,2013-11-11 13:15:00
7:35 AM,35.6,32.0,87,30.10,7.0,WNW,8.1,-,N/A,Rain,Light Rain,300,2013-11-11 13:35:00
7:55 AM,35.6,32.0,87,30.10,7.0,WNW,6.9,-,N/A,Rain,Light Rain,300,2013-11-11 13:55:00
8:15 AM,35.6,32.0,87,30.12,7.0,NW,6.9,-,0.01,Rain,Light Rain,310,2013-11-11 14:15:00
8:35 AM,33.8,32.0,93,30.12,5.0,NW,4.6,-,0.01,Rain,Light Rain,310,2013-11-11 14:35:00
8:55 AM,33.8,32.0,93,30.12,7.0,NW,4.6,-,0.01,Rain,Light Rain,310,2013-11-11 14:55:00
9:15 AM,33.8,32.0,93,30.13,4.0,NW,5.8,-,N/A,Rain,Light Rain,310,2013-11-11 15:15:00
9:35 AM,33.8,32.0,93,30.14,5.0,NNW,6.9,-,N/A,Rain,Light Rain,330,2013-11-11 15:35:00
9:55 AM,33.8,32.0,93,30.15,7.0,NW,9.2,-,N/A,Rain,Light Rain,310,2013-11-11 15:55:00
10:15 AM,32.0,30.2,93,30.16,1.2,North,12.7,23.0,0.01,Snow,Light Snow,360,2013-11-11 16:15:00
10:35 AM,32.0,28.4,87,30.17,1.5,North,9.2,19.6,0.01,Snow,Light Snow,360,2013-11-11 16:35:00
10:55 AM,30.2,26.6,86,30.19,2.5,North,17.3,20.7,0.01,Snow,Light Snow,350,2013-11-11 16:55:00
11:15 AM,30.2,26.6,86,30.20,2.0,North,12.7,-,N/A,Snow,Light Snow,350,2013-11-11 17:15:00
11:35 AM,30.2,26.6,86,30.20,1.5,NNW,11.5,18.4,N/A,Snow,Light Snow,340,2013-11-11 17:35:00
11:55 AM,28.4,26.6,93,30.20,1.0,North,13.8,19.6,N/A,Snow,Light Snow,350,2013-11-11 17:55:00
12:15 PM,28.4,23.0,80,30.21,3.0,North,6.9,-,N/A,Snow,Light Snow,360,2013-11-11 18:15:00
12:35 PM,28.4,21.2,74,30.21,10.0,North,8.1,-,N/A,,Overcast,350,2013-11-11 18:35:00
12:55 PM,28.4,17.6,64,30.22,10.0,North,11.5,19.6,N/A,,Overcast,360,2013-11-11 18:55:00
1:15 PM,30.2,17.6,60,30.23,10.0,North,12.7,-,N/A,,Overcast,360,2013-11-11 19:15:00
1:35 PM,28.4,17.6,64,30.24,10.0,NNW,12.7,17.3,N/A,,Mostly Cloudy,340,2013-11-11 19:35:00
1:55 PM,28.4,14.0,55,30.25,10.0,North,10.4,20.7,N/A,,Scattered Clouds,350,2013-11-11 19:55:00
2:15 PM,28.4,15.8,59,30.25,10.0,NNW,10.4,20.7,N/A,,Mostly Cloudy,340,2013-11-11 20:15:00
2:35 PM,28.4,15.8,59,30.25,10.0,North,6.9,16.1,N/A,,Scattered Clouds,350,2013-11-11 20:35:00
2:55 PM,28.4,17.6,64,30.26,10.0,North,8.1,-,N/A,,Scattered Clouds,350,2013-11-11 20:55:00
3:15 PM,28.4,14.0,55,30.27,10.0,NNW,9.2,16.1,N/A,,Scattered Clouds,340,2013-11-11 21:15:00
3:35 PM,28.4,14.0,55,30.28,10.0,NNW,8.1,-,N/A,,Clear,340,2013-11-11 21:35:00
3:55 PM,28.4,14.0,55,30.29,10.0,NNW,8.1,-,N/A,,Clear,330,2013-11-11 21:55:00
4:15 PM,28.4,14.0,55,30.30,10.0,NNW,11.5,-,N/A,,Clear,330,2013-11-11 22:15:00
4:35 PM,28.4,14.0,55,30.31,10.0,NNW,12.7,18.4,N/A,,Clear,340,2013-11-11 22:35:00
4:55 PM,28.4,12.2,51,30.32,10.0,NNW,9.2,-,N/A,,Clear,330,2013-11-11 22:55:00
5:15 PM,26.6,14.0,59,30.34,10.0,NW,6.9,-,N/A,,Clear,320,2013-11-11 23:15:00
5:35 PM,26.6,12.2,55,30.34,10.0,NW,5.8,-,N/A,,Clear,320,2013-11-11 23:35:00
5:55 PM,26.6,14.0,59,30.35,10.0,NW,4.6,-,N/A,,Clear,310,2013-11-11 23:55:00
6:15 PM,26.6,14.0,59,30.36,10.0,NW,6.9,-,N/A,,Clear,310,2013-11-12 00:15:00
6:35 PM,24.8,14.0,64,30.37,10.0,NW,8.1,-,N/A,,Clear,310,2013-11-12 00:35:00
6:55 PM,24.8,14.0,64,30.39,10.0,NW,5.8,-,N/A,,Scattered Clouds,320,2013-11-12 00:55:00
7:15 PM,24.8,14.0,64,30.39,10.0,NNW,4.6,-,N/A,,Mostly Cloudy,340,2013-11-12 01:15:00
7:35 PM,24.8,14.0,64,30.40,10.0,NNW,3.5,-,N/A,,Overcast,330,2013-11-12 01:35:00
7:55 PM,24.8,14.0,64,30.41,10.0,NNW,3.5,-,N/A,,Mostly Cloudy,330,2013-11-12 01:55:00
8:15 PM,24.8,14.0,64,30.42,10.0,NNW,5.8,-,N/A,,Scattered Clouds,340,2013-11-12 02:15:00
8:35 PM,24.8,12.2,59,30.43,10.0,NNW,6.9,-,N/A,,Scattered Clouds,340,2013-11-12 02:35:00
8:55 PM,26.6,12.2,55,30.43,10.0,North,9.2,20.7,N/A,,Mostly Cloudy,350,2013-11-12 02:55:00
9:15 PM,26.6,12.2,55,30.45,10.0,North,11.5,18.4,N/A,,Mostly Cloudy,360,2013-11-12 03:15:00
9:35 PM,26.6,12.2,55,30.46,10.0,North,13.8,24.2,N/A,,Overcast,10,2013-11-12 03:35:00
9:55 PM,26.6,12.2,55,30.47,10.0,NNW,10.4,20.7,N/A,,Overcast,340,2013-11-12 03:55:00
10:15 PM,26.6,12.2,55,30.47,10.0,North,8.1,-,N/A,,Overcast,350,2013-11-12 04:15:00
10:35 PM,26.6,14.0,59,30.48,10.0,NNW,10.4,-,N/A,,Overcast,340,2013-11-12 04:35:00
10:55 PM,26.6,14.0,59,30.48,10.0,NNW,10.4,-,N/A,,Overcast,340,2013-11-12 04:55:00
11:15 PM,26.6,14.0,59,30.49,10.0,North,10.4,20.7,N/A,,Overcast,350,2013-11-12 05:15:00
11:35 PM,26.6,14.0,59,30.50,10.0,NNW,9.2,-,N/A,,Scattered Clouds,330,2013-11-12 05:35:00
11:55 PM,24.8,12.2,59,30.50,10.0,NNW,9.2,-,N/A,,Clear,330,2013-11-12 05:55:00